TimeCDT,TemperatureF,Dew PointF,Humidity,Sea Level PressureIn,VisibilityMPH,Wind Direction,Wind SpeedMPH,Gust SpeedMPH,PrecipitationIn,Events,Conditions,WindDirDegrees,DateUTC
12:15 AM,59.0,46.4,63,29.94,10.0,NNW,6.9,-,N/A,,Overcast,340,2013-09-22 05:15:00
12:35 AM,59.0,46.4,63,29.94,10.0,NW,6.9,-,N/A,,Overcast,310,2013-09-22 05:35:00
12:55 AM,59.0,46.4,63,29.94,10.0,NNW,3.5,-,N/A,,Overcast,330,2013-09-22 05:55:00
1:15 AM,59.0,46.4,63,29.94,10.0,North,4.6,-,N/A,,Overcast,360,2013-09-22 06:15:00
1:35 AM,55.4,46.4,72,29.95,10.0,ENE,4.6,-,N/A,,Overcast,70,2013-09-22 06:35:00
1:55 AM,55.4,46.4,72,29.95,10.0,East,4.6,-,N/A,,Overcast,80,2013-09-22 06:55:00
2:15 AM,55.4,46.4,72,29.96,10.0,East,3.5,-,N/A,,Overcast,80,2013-09-22 07:15:00
2:35 AM,53.6,46.4,77,29.96,10.0,Calm,Calm,-,N/A,,Overcast,0,2013-09-22 07:35:00
2:55 AM,53.6,44.6,72,29.96,10.0,East,3.5,-,N/A,,Overcast,80,2013-09-22 07:55:00
3:15 AM,53.6,44.6,72,29.97,10.0,Calm,Calm,-,N/A,,Overcast,0,2013-09-22 08:15:00
3:35 AM,53.6,44.6,72,29.97,10.0,Calm,Calm,-,N/A,,Overcast,0,2013-09-22 08:35:00
3:55 AM,51.8,46.4,82,29.97,10.0,Calm,Calm,-,N/A,,Overcast,0,2013-09-22 08:55:00
4:15 AM,51.8,46.4,82,29.97,10.0,Calm,Calm,-,N/A,,Overcast,0,2013-09-22 09:15:00
4:35 AM,53.6,46.4,77,29.98,10.0,Calm,Calm,-,N/A,,Overcast,0,2013-09-22 09:35:00
4:55 AM,51.8,46.4,82,29.98,10.0,Calm,Calm,-,N/A,,Overcast,0,2013-09-22 09:55:00
5:15 AM,51.8,44.6,76,29.98,10.0,Calm,Calm,-,N/A,,Overcast,0,2013-09-22 10:15:00
5:35 AM,51.8,44.6,76,29.99,10.0,Calm,Calm,-,N/A,,Overcast,0,2013-09-22 10:35:00
5:55 AM,51.8,44.6,76,29.99,10.0,Calm,Calm,-,N/A,,Overcast,0,2013-09-22 10:55:00
6:15 AM,51.8,44.6,76,29.99,10.0,Calm,Calm,-,N/A,,Overcast,0,2013-09-22 11:15:00
6:35 AM,51.8,44.6,76,30.00,10.0,Calm,Calm,-,N/A,,Overcast,0,2013-09-22 11:35:00
6:55 AM,50.0,44.6,82,30.00,10.0,Calm,Calm,-,N/A,,Overcast,0,2013-09-22 11:55:00
7:15 AM,50.0,44.6,82,30.01,10.0,Calm,Calm,-,N/A,,Mostly Cloudy,0,2013-09-22 12:15:00
7:35 AM,51.8,44.6,76,30.01,10.0,Calm,Calm,-,N/A,,Mostly Cloudy,0,2013-09-22 12:35:00
7:55 AM,53.6,42.8,67,30.02,10.0,Calm,Calm,-,N/A,,Scattered Clouds,0,2013-09-22 12:55:00
8:15 AM,55.4,41.0,58,30.03,10.0,East,3.5,-,N/A,,Mostly Cloudy,90,2013-09-22 13:15:00
8:35 AM,53.6,39.2,58,30.04,10.0,East,3.5,-,N/A,,Overcast,80,2013-09-22 13:35:00
8:55 AM,53.6,41.0,62,30.05,10.0,East,3.5,-,N/A,,Overcast,90,2013-09-22 13:55:00
9:15 AM,55.4,41.0,58,30.05,10.0,ESE,4.6,-,N/A,,Overcast,120,2013-09-22 14:15:00
9:35 AM,55.4,41.0,58,30.05,10.0,ENE,4.6,-,N/A,,Mostly Cloudy,60,2013-09-22 14:35:00
9:55 AM,57.2,42.8,59,30.05,10.0,Calm,Calm,-,N/A,,Mostly Cloudy,0,2013-09-22 14:55:00
10:15 AM,57.2,42.8,59,30.06,10.0,Calm,Calm,-,N/A,,Mostly Cloudy,0,2013-09-22 15:15:00
10:35 AM,59.0,42.8,55,30.06,10.0,Calm,Calm,-,N/A,,Mostly Cloudy,0,2013-09-22 15:35:00
10:55 AM,59.0,42.8,55,30.06,10.0,NW,3.5,-,N/A,,Mostly Cloudy,310,2013-09-22 15:55:00
11:15 AM,59.0,42.8,55,30.06,10.0,ENE,3.5,-,N/A,,Mostly Cloudy,70,2013-09-22 16:15:00
11:35 AM,59.0,44.6,59,30.06,10.0,North,4.6,-,N/A,,Mostly Cloudy,10,2013-09-22 16:35:00
11:55 AM,60.8,44.6,55,30.06,10.0,NNE,8.1,-,N/A,,Mostly Cloudy,20,2013-09-22 16:55:00
12:15 PM,60.8,42.8,52,30.06,10.0,North,8.1,-,N/A,,Mostly Cloudy,10,2013-09-22 17:15:00
12:35 PM,60.8,44.6,55,30.05,10.0,NNW,4.6,-,N/A,,Scattered Clouds,340,2013-09-22 17:35:00
12:55 PM,60.8,44.6,55,30.05,10.0,North,6.9,-,N/A,,Scattered Clouds,10,2013-09-22 17:55:00
1:15 PM,60.8,44.6,55,30.04,10.0,NNE,6.9,-,N/A,,Scattered Clouds,20,2013-09-22 18:15:00
1:35 PM,59.0,42.8,55,30.04,10.0,Calm,Calm,-,N/A,,Scattered Clouds,0,2013-09-22 18:35:00
1:55 PM,60.8,42.8,52,30.04,10.0,NE,4.6,-,N/A,,Mostly Cloudy,40,2013-09-22 18:55:00
2:15 PM,59.0,44.6,59,30.04,10.0,NNW,6.9,-,N/A,,Mostly Cloudy,340,2013-09-22 19:15:00
2:35 PM,59.0,42.8,55,30.04,10.0,North,4.6,16.1,N/A,,Scattered Clouds,10,2013-09-22 19:35:00
2:55 PM,59.0,42.8,55,30.04,10.0,NNW,4.6,-,N/A,,Mostly Cloudy,340,2013-09-22 19:55:00
3:15 PM,59.0,42.8,55,30.04,10.0,North,8.1,-,N/A,,Mostly Cloudy,360,2013-09-22 20:15:00
3:35 PM,59.0,42.8,55,30.03,10.0,East,3.5,-,N/A,,Mostly Cloudy,80,2013-09-22 20:35:00
3:55 PM,59.0,42.8,55,30.03,10.0,North,8.1,-,N/A,,Mostly Cloudy,360,2013-09-22 20:55:00
4:15 PM,59.0,42.8,55,30.03,10.0,North,4.6,-,N/A,,Mostly Cloudy,10,2013-09-22 21:15:00
4:35 PM,59.0,44.6,59,30.03,7.0,NE,6.9,-,N/A,,Mostly Cloudy,40,2013-09-22 21:35:00
4:55 PM,55.4,42.8,63,30.03,10.0,NNE,5.8,-,N/A,,Mostly Cloudy,30,2013-09-22 21:55:00
5:15 PM,57.2,42.8,59,30.03,10.0,NNE,4.6,-,N/A,,Mostly Cloudy,30,2013-09-22 22:15:00
5:35 PM,55.4,42.8,63,30.03,10.0,NNE,4.6,-,N/A,,Scattered Clouds,20,2013-09-22 22:35:00
5:55 PM,55.4,42.8,63,30.04,10.0,ENE,4.6,-,N/A,,Scattered Clouds,60,2013-09-22 22:55:00
6:15 PM,55.4,44.6,67,30.04,10.0,NNE,3.5,-,N/A,,Clear,30,2013-09-22 23:15:00
6:35 PM,53.6,44.6,72,30.04,10.0,Calm,Calm,-,N/A,,Clear,0,2013-09-22 23:35:00
6:55 PM,51.8,44.6,76,30.05,10.0,Calm,Calm,-,N/A,,Clear,0,2013-09-22 23:55:00
7:15 PM,50.0,44.6,82,30.05,10.0,Calm,Calm,-,N/A,,Clear,0,2013-09-23 00:15:00
7:35 PM,50.0,44.6,82,30.05,10.0,Calm,Calm,-,N/A,,Clear,0,2013-09-23 00:35:00
7:55 PM,48.2,44.6,87,30.05,10.0,Calm,Calm,-,N/A,,Clear,0,2013-09-23 00:55:00
8:15 PM,48.2,44.6,87,30.06,10.0,Calm,Calm,-,N/A,,Clear,0,2013-09-23 01:15:00
8:35 PM,46.4,44.6,93,30.06,10.0,Calm,Calm,-,N/A,,Clear,0,2013-09-23 01:35:00
8:55 PM,46.4,44.6,93,30.06,10.0,Calm,Calm,-,N/A,,Clear,0,2013-09-23 01:55:00
9:15 PM,46.4,44.6,93,30.07,10.0,Calm,Calm,-,N/A,,Clear,0,2013-09-23 02:15:00
9:35 PM,46.4,44.6,93,30.06,10.0,Calm,Calm,-,N/A,,Clear,0,2013-09-23 02:35:00
9:55 PM,44.6,42.8,93,30.06,10.0,Calm,Calm,-,N/A,,Clear,0,2013-09-23 02:55:00
10:15 PM,46.4,42.8,87,30.07,10.0,Calm,Calm,-,N/A,,Clear,0,2013-09-23 03:15:00
10:35 PM,44.6,42.8,93,30.07,10.0,Calm,Calm,-,N/A,,Clear,0,2013-09-23 03:35:00
10:55 PM,46.4,42.8,87,30.07,10.0,Calm,Calm,-,N/A,,Clear,0,2013-09-23 03:55:00
11:15 PM,46.4,42.8,87,30.08,10.0,Calm,Calm,-,N/A,,Clear,0,2013-09-23 04:15:00
11:35 PM,44.6,42.8,93,30.08,10.0,Calm,Calm,-,N/A,,Clear,0,2013-09-23 04:35:00
11:55 PM,42.8,41.0,93,30.09,10.0,Calm,Calm,-,N/A,,Clear,0,2013-09-23 04:55:00